Regional Weather Roundup
Issued by NWS

Home | Current Version | Previous Version | Text Only | Print | Product List | Glossary On
Versions: 1 2 3 4 5 6 7 8 9 10 11 12 13 14 15 16 17 18 19 20 21 22 23 24 25 26 27 28 29 30 31 32 33 34 35 36 37 38 39 40 41 42 43 44 45 46 47 48 49 50
000
ASUS43 KLOT 271810
RWRIL

ILLINOIS REGIONAL WEATHER ROUNDUP
NATIONAL WEATHER SERVICE CHICAGO/ROMEOVILLE IL
1200 PM CST SAT DEC 27 2014

NOTE: "FAIR" INDICATES FEW OR NO CLOUDS BELOW 12,000 FEET WITH NO
SIGNIFICANT WEATHER AND/OR OBSTRUCTIONS TO VISIBILITY.

* THESE STATIONS ARE NOT UNDER NWS QUALITY CONTROL. THEY ALSO MAY NOT
  REPORT WEATHER SUCH AS PRECIPITATION OR FOG.

ILZ001-002-007-009-015-016-024-271900-
NORTHWEST ILLINOIS

CITY           SKY/WX    TMP DP  RH WIND       PRES   REMARKS
MOLINE         CLOUDY    35  26  69 W16       30.06F WCI  25
6HR MIN TEMP:  35; 6HR MAX TEMP:  49; 6HR PCP:  0.01;

STERLING*      CLOUDY    36  28  75 W23G29    30.05R WCI  24
SAVANNA*       CLOUDY    35  28  75 W13       30.04S WCI  27
$$

ILZ003-004-008-010-011-017-018-271900-
NORTH CENTRAL ILLINOIS

CITY           SKY/WX    TMP DP  RH WIND       PRES   REMARKS
ROCKFORD       CLOUDY    36  30  79 W16G26    30.00F WCI  26
6HR MIN TEMP:  36; 6HR MAX TEMP:  49; 6HR PCP:  0.02;

FREEPORT*      CLOUDY    34  30  86 W14G23    30.01F WCI  24
ROCHELLE*      CLOUDY    36  31  83 W25G32    30.02F WCI  23
DE KALB*       CLOUDY    35  30  82 W28G35    30.00S WCI  22
PERU*          CLOUDY    39  32  77 W22G28    30.07R WCI  28
$$

ILZ005-006-012>014-019>023-271900-
NORTHEAST ILLINOIS

CITY           SKY/WX    TMP DP  RH WIND       PRES   REMARKS
CHICAGO-OHARE  CLOUDY    39  35  86 W24       29.97R WCI  28
6HR MIN TEMP:  39; 6HR MAX TEMP:  49; 6HR PCP: TRACE;

CHICAGO-MIDWAY LGT RAIN  44  40  85 SW15G28   29.96S
6HR MIN TEMP:  44; 6HR MAX TEMP:  50; 6HR PCP: TRACE;

AURORA         CLOUDY    38  31  76 SW16      30.00F WCI  29
6HR MIN TEMP:  38; 6HR MAX TEMP:  49; 6HR PCP:  0.01;

LANSING*       DRIZZLE   48  46  93 W22G30    29.99S
JOLIET*        CLOUDY    39  35  84 W13G21    30.04S WCI  31
WAUKEGAN       CLOUDY    41  34  76 SW22G30   29.91S
6HR MIN TEMP:  41; 6HR MAX TEMP:  49;

DUPAGE AIRPORT CLOUDY    38  32  79 W18G28    29.97F WCI  28
6HR MIN TEMP:  38; 6HR MAX TEMP:  49; 6HR PCP: TRACE;

KANKAKEE*      CLOUDY    43  41  93 W23       30.03F
WHEELING       CLOUDY    41  36  82 W14G26    29.98R
6HR MIN TEMP:  41; 6HR MAX TEMP:  49; 6HR PCP: TRACE;

MORRIS*        CLOUDY    38  34  85 W21       30.01F WCI  28
ROMEOVILLE*    CLOUDY    38  35  86 W21       30.01F WCI  28
NORTHERLY ISL    N/A     45  40  82 W12         N/A
$$

LMZ740>746-271900-
SOUTHERN LAKE MICHIGAN

STATION/POSITION SKY/WX   TEMP    WIND        PRES    VSBY  WAVE
                          AIR SEA DIR/SP/G                  HT/PER
                          (F)     (DEG/KT/KT) (MB)    (MI)  (FT/S)
WAUKEGAN HARBOR            41     250/ 21/ 25   N/A
HARRISON CRIB              46     250/ 28/ 37   N/A
BURNHAM HARBOR             44     260/ 10/ 23   N/A
CALUMET HARBOR             47     240/ 18/ 26 1013.7F
MICHIGAN CITY              47     180/ 18/ 24   N/A
$$

ILZ025>027-034>036-040-047-049-050-058-095>099-271900-
WEST-CENTRAL ILLINOIS

CITY           SKY/WX    TMP DP  RH WIND       PRES   REMARKS
QUINCY         LGT RAIN  38  30  73 W15       30.16F WCI  29
GALESBURG*     CLOUDY    36  30  80 W15G25    30.05F WCI  26
MACOMB*        CLOUDY    37  32  81 W14       30.10F WCI  28
JACKSONVILLE*  CLOUDY    41  33  72 W14       30.12F
PITTSFIELD*    CLOUDY    40  32  72 W12       30.14F
$$

ILZ028>032-037-038-041>044-048-051>054-059>061-271900-
CENTRAL ILLINOIS

CITY           SKY/WX    TMP DP  RH WIND       PRES   REMARKS
PONTIAC        CLOUDY    40  38  91 W22       30.05F
BLOOMINGTON    CLOUDY    39  37  92 W18       30.08F WCI  29
DECATUR        CLOUDY    44  41  89 W17       30.10F
PEORIA         CLOUDY    40  31  70 MISG      30.10F
6HR MIN TEMP:  40; 6HR MAX TEMP:  50; 6HR PCP:  0.01;

LACON*         CLOUDY    37  30  74 W9G22     30.08S WCI  31
LINCOLN*       CLOUDY    42  37  82 W9G20     30.11S
SPRINGFIELD    CLOUDY    41  35  79 W18       30.12F
6HR MIN TEMP:  41; 6HR MAX TEMP:  49; 6HR PCP:  0.01;

TAYLORVILLE    CLOUDY    41  37  87 W10G18    30.12F
$$

ILZ033-039-045-046-055>057-062-063-271900-
EAST-CENTRAL ILLINOIS

CITY           SKY/WX    TMP DP  RH WIND       PRES   REMARKS
CHAMPAIGN      CLOUDY    49  47  93 SW17      30.07F FOG
DANVILLE*      CLOUDY    46  46  98 SW13G20   30.04F FOG
RANTOUL*       CLOUDY    47  45  93 W17       30.06F
MATTOON        CLOUDY    47  47 100 SW8       30.08F FOG
PARIS*         CLOUDY    47  47 100 SW12      30.09F FOG
$$

ILZ079-100>102-271900-
SOUTHWEST ILLINOIS

CITY           SKY/WX    TMP DP  RH WIND       PRES   REMARKS
ALTON          CLOUDY    43  39  87 W14       30.15F
BELLEVILLE     PTSUNNY   43  43  99 W13       30.14F
CAHOKIA*       CLOUDY    44  39  82 W12       30.15F
SPARTA*        DRIZZLE   47  46  97 W10       30.14S
$$

ILZ064>066-069>071-074>076-080>082-084>086-088>090-092>094-271900-
SOUTH-CENTRAL ILLINOIS

CITY           SKY/WX    TMP DP  RH WIND       PRES   REMARKS
CARBONDALE     CLOUDY    50  48  93 S6        30.12F
6HR MIN TEMP:  47; 6HR MAX TEMP:  50; 6HR PCP:  0.01;

CAIRO*         LGT RAIN N/A N/A N/A SE6       30.13F
EFFINGHAM*     DRIZZLE   49  46  92 SW3       30.11F
MARION         LGT RAIN  50  48  93 SW8       30.12F
MT. VERNON     CLOUDY    48  45  87 SW8       30.13F
CENTRALIA*     DRIZZLE   49  46  92 SW7       30.12F
SALEM*         RAIN      51  49  91 SW7       30.12F
METROPOLIS*    DRIZZLE   49  49 100 SE3       30.13F
$$

ILZ067-068-072-073-078-083-087-091-271900-
SOUTHEAST ILLINOIS

CITY           SKY/WX    TMP DP  RH WIND       PRES   REMARKS
LAWRENCEVILLE  CLOUDY    49  48  97 SW7       30.13F FOG
FLORA*         PTSUNNY   49  48  96 SW8       30.12F
FAIRFIELD*     DRIZZLE   50  49  95 SW3       30.12F
HARRISBURG*    RAIN      49  49 100 SW5       30.15F
ROBINSON*      CLOUDY    48  47  95 SW10      30.13F
CARMI*         LGT RAIN  50  50 100 SW6       30.13S
$$

ABBREVIATIONS USED IN REMARKS
   TC - TEMPERATURE IN CELSIUS
  WCI - WIND CHILL INDEX
   HX - HEAT INDEX
  VSB - VISIBILITY
$$



USA.gov is the U.S. government's official web portal to all federal, state and local government web resources and services.